Theta_e
351 357 363 360 359 358 358 358 358 358 357 357 357 357 357 357 356 356 356 356 356 356 356 356 355 355 355 354 354 354 354 354 351 347 347 349 349 347 346 346 346 341 345
352 357 363 361 359 357 358 357 357 357 357 357 356 356 356 356 356 356 356 355 354 353 353 352 351 351 351 350 351 351 351 352 352 351 347 346 349 347 346 346 346 343 345
353 356 360 362 359 358 358 358 357 356 356 356 355 355 355 355 355 354 354 354 354 353 352 352 352 352 352 352 353 353 353 353 353 354 353 347 341 347 347 347 347 347 346
353 353 356 361 360 358 358 357 357 357 356 355 355 355 354 355 355 355 355 354 354 355 354 354 354 353 354 354 353 354 353 353 353 353 345 346 345 349 349 348 348 347 347
350 351 353 360 360 357 357 357 357 356 356 354 354 353 353 353 353 354 354 354 355 355 355 355 355 356 355 356 356 356 355 354 353 350 344 341 340 348 351 350 348 348 347
347 349 356 360 360 358 356 356 357 355 355 355 353 353 353 353 355 355 354 354 354 354 354 355 355 355 355 355 355 355 355 354 353 342 343 342 340 349 354 351 351 349 347
347 349 354 360 360 358 356 356 357 356 356 356 354 354 355 357 357 357 356 355 355 354 354 354 355 357 356 354 353 355 354 352 346 340 344 344 342 348 356 354 353 352 348
346 349 351 358 360 359 359 358 357 357 356 356 356 355 356 356 356 357 358 356 356 357 355 355 357 357 356 356 355 355 354 352 348 345 345 343 346 349 354 356 355 354 350
346 346 346 350 355 358 358 358 357 355 354 354 354 354 355 356 357 358 358 358 355 358 358 357 357 357 356 356 355 356 355 352 344 344 340 335 345 349 355 356 355 354 352
340 341 341 344 346 345 345 356 355 355 354 353 354 355 355 355 350 349 352 350 355 357 356 352 353 352 351 353 353 353 354 353 342 334 335 336 348 351 356 355 357 356 354
339 339 341 341 342 343 343 346 354 356 356 355 353 353 348 333 331 337 346 347 347 350 351 348 347 345 344 345 351 351 346 339 335 336 336 341 345 349 353 355 354 354 354
338 338 338 339 340 342 347 343 346 347 348 346 344 340 326 326 328 331 335 338 337 344 343 339 340 337 333 334 337 340 335 336 335 334 334 341 342 344 346 348 351 349 352
337 339 341 340 342 342 343 336 343 343 342 341 333 327 323 327 322 322 320 320 319 327 319 320 321 323 324 327 330 332 332 332 331 333 334 339 341 344 345 348 350 351 352
334 333 333 336 328 324 324 327 328 332 333 329 325 324 321 323 321 319 317 317 318 317 315 314 317 317 317 320 323 322 326 329 330 331 332 341 341 343 345 346 347 350 349
328 329 329 327 325 323 324 323 321 322 323 326 324 324 324 320 321 318 318 315 317 316 314 312 315 315 314 314 315 317 317 322 325 329 331 338 340 342 342 344 346 349 348
328 327 327 324 324 324 321 322 321 321 321 320 320 322 324 322 320 319 318 315 317 317 315 312 314 313 313 313 313 314 313 316 318 322 328 325 334 340 343 343 344 345 347
328 326 325 326 326 322 323 323 320 320 323 321 321 322 323 322 320 318 318 317 319 318 315 315 316 314 314 314 313 313 312 312 316 318 319 318 323 331 336 344 342 346 347
325 325 327 332 324 322 321 320 322 323 321 319 320 321 323 323 321 319 318 318 320 317 317 320 318 317 315 313 313 312 313 313 313 313 315 316 321 322 327 339 342 342 344
325 325 325 327 325 324 322 326 324 320 318 318 317 316 318 320 319 316 313 313 316 315 314 316 314 314 313 314 316 313 314 311 311 315 313 314 316 320 329 336 337 338 338
325 323 325 324 323 323 327 324 320 317 317 315 316 314 315 315 316 311 311 311 312 313 312 312 310 312 315 314 315 313 310 311 311 310 311 314 313 320 329 329 326 327 335
325 322 322 322 323 325 324 322 319 316 317 313 313 316 314 314 314 311 310 310 310 310 310 310 309 309 309 309 307 306 308 308 309 309 308 309 318 323 325 326 327 328 330
324 322 323 325 325 322 320 320 317 313 312 313 311 311 313 314 313 314 310 310 309 309 309 309 308 307 308 309 306 306 299 302 306 309 308 314 311 319 323 323 323 324 327
324 324 326 323 320 319 319 316 313 311 310 310 309 310 312 313 313 312 311 310 309 307 306 306 307 306 306 311 310 303 297 296 301 305 308 309 309 314 316 316 320 323 324
325 327 325 321 319 319 317 313 310 307 307 308 308 308 310 311 311 311 310 309 307 307 306 306 310 308 311 305 303 309 305 305 298 297 304 307 309 313 312 314 317 323 325
325 325 323 321 318 316 314 312 310 308 308 308 308 307 307 307 308 309 309 307 306 309 311 307 306 306 307 303 301 301 305 303 303 302 299 301 306 309 311 313 317 321 324
322 321 320 317 315 314 314 313 311 309 307 306 305 305 305 305 305 307 308 307 307 306 308 310 309 307 307 307 307 306 305 303 299 300 299 299 300 306 315 316 317 320 321
Wind_Speed
4 5 9 10 9 9 9 9 9 9 10 11 11 11 11 10 10 9 9 8 8 8 9 9 9 10 10 10 10 10 9 8 7 6 5 5 6 8 8 9 10 8 12
6 5 9 10 10 9 8 8 8 8 9 9 9 8 8 8 7 7 6 6 6 6 6 6 7 7 8 8 8 8 7 6 5 4 3 3 5 6 6 7 9 7 11
7 5 7 10 10 9 8 8 7 7 7 6 6 6 6 5 5 4 4 4 4 4 4 5 5 6 6 7 7 6 6 6 7 7 5 2 3 4 5 7 8 10 11
8 5 5 11 11 11 9 8 7 7 6 5 4 4 3 3 3 3 3 3 4 4 5 5 5 5 5 7 7 6 5 5 6 7 3 3 5 9 8 8 9 10 12
6 5 5 11 10 11 10 9 7 6 5 4 3 2 1 1 1 2 4 5 5 5 6 6 6 6 5 6 7 7 7 5 6 4 4 3 4 9 12 10 8 9 11
6 6 9 11 11 11 11 9 7 7 6 4 2 1 2 3 4 5 5 5 6 7 8 8 9 8 8 8 8 9 8 7 7 3 4 5 4 8 14 13 12 11 10
6 5 6 10 10 10 10 9 7 6 5 3 3 3 4 5 6 7 8 8 9 9 9 10 10 9 9 10 10 9 10 9 4 3 4 5 5 5 13 16 15 13 13
7 5 5 8 8 8 8 7 6 5 5 4 4 5 6 8 8 9 9 9 10 10 10 10 10 11 11 10 10 10 10 12 6 2 3 4 7 9 15 18 16 16 15
4 4 4 5 7 8 7 7 7 6 5 4 4 6 7 8 9 9 9 8 10 10 8 9 10 11 10 11 10 10 11 12 5 2 3 2 8 13 15 20 17 16 17
1 3 4 4 4 3 3 5 5 4 4 6 5 5 6 6 6 7 6 5 8 8 5 6 8 8 9 7 8 9 10 11 4 2 3 4 13 14 11 19 17 17 19
4 6 5 5 4 4 4 3 6 6 6 5 4 6 2 1 3 6 9 9 8 7 4 5 8 9 9 10 10 9 8 3 3 2 3 9 11 8 4 14 11 12 16
4 5 6 6 6 5 4 3 4 4 3 3 2 1 0 1 1 3 5 7 7 6 8 9 9 8 7 4 4 7 3 4 3 3 3 8 9 10 7 7 10 9 12
10 6 7 6 5 5 4 2 2 1 1 2 1 1 3 1 2 1 1 2 1 4 3 4 4 3 4 3 4 3 3 3 2 2 4 8 9 11 13 11 13 14 8
3 9 10 7 5 5 2 3 1 1 1 1 2 3 3 2 3 2 1 1 2 2 2 1 1 1 2 3 3 4 4 3 2 2 5 10 12 12 16 18 18 15 11
7 4 6 8 7 6 6 3 3 3 1 0 3 4 3 3 4 4 4 2 3 2 1 2 3 3 2 1 1 2 4 4 5 2 3 10 11 12 11 15 16 16 13
7 5 5 7 8 7 6 5 3 2 3 2 4 5 6 4 4 4 4 4 4 3 3 3 4 2 3 3 4 5 3 5 6 6 3 4 13 11 9 9 9 13 16
5 4 4 5 7 8 7 6 4 3 4 4 3 5 6 6 5 4 4 4 4 3 4 3 1 3 3 3 5 2 5 3 4 7 8 6 5 11 13 9 9 12 12
5 5 5 5 6 7 6 5 4 5 4 4 5 5 7 7 7 6 4 4 4 3 3 2 2 1 1 4 2 5 3 4 5 5 5 6 6 4 7 9 9 7 9
4 7 5 5 7 6 6 5 6 6 5 4 4 3 5 5 5 5 4 4 4 4 3 2 2 2 3 2 4 1 4 4 5 4 6 6 7 7 2 4 9 8 5
2 2 6 3 5 6 5 5 3 4 4 3 1 2 3 2 3 2 3 5 5 4 5 3 3 2 3 2 4 2 4 4 5 4 6 5 5 5 3 3 2 4 9
1 2 3 4 3 2 2 1 2 2 2 2 2 1 2 2 4 4 3 4 4 4 5 5 3 3 2 1 2 4 4 5 6 4 3 4 5 3 4 3 2 2 3
3 2 1 3 4 3 3 2 1 1 1 2 2 3 1 4 5 4 4 5 6 4 4 2 0 1 2 1 2 1 4 5 4 3 3 3 6 3 4 4 3 4 4
3 6 5 5 5 3 3 1 2 3 2 3 2 3 3 5 5 4 5 4 6 4 4 3 2 2 2 1 1 3 2 4 3 4 4 3 5 3 3 3 3 3 4
5 6 7 5 5 5 5 4 2 2 2 3 1 2 4 4 5 6 5 4 5 4 5 4 1 1 2 3 2 1 2 2 3 4 3 5 4 3 3 3 4 5 6
5 6 6 5 6 4 5 2 2 3 2 1 2 4 4 5 6 6 5 6 5 4 4 4 2 1 2 2 3 2 2 2 3 4 3 4 3 2 3 3 3 3 4
2 4 5 7 6 4 3 3 4 5 4 2 3 3 4 3 4 6 6 5 5 5 5 3 1 3 3 3 3 4 4 3 3 3 1 3 3 2 2 2 2 3 4
Wind_Direction
171 166 156 141 133 124 117 110 98 88 85 81 79 79 80 79 77 74 71 70 66 56 54 52 47 43 45 50 53 50 45 44 60 70 66 58 119 115 122 123 123 124 119
128 150 161 144 136 131 125 111 95 84 82 87 87 84 82 81 81 79 75 64 62 59 52 47 43 39 31 33 41 39 37 30 19 33 72 62 84 103 133 138 138 134 125
136 157 159 146 141 143 136 127 117 113 106 94 87 84 80 73 65 58 52 43 33 31 25 23 25 18 9 5 11 20 18 9 357 358 352 198 189 186 174 161 158 146 136
146 157 157 156 151 154 149 144 141 132 120 110 105 97 82 73 45 17 8 7 357 350 347 344 347 351 347 339 340 343 353 352 343 344 8 313 213 205 193 187 176 165 147
147 159 180 162 159 158 157 158 154 146 145 150 150 150 116 24 338 316 324 328 328 323 318 316 315 315 313 310 309 311 318 323 318 344 317 291 245 215 194 195 191 186 169
159 171 183 171 167 168 167 167 165 163 176 193 189 258 291 299 306 307 302 299 300 302 307 306 305 303 301 297 297 299 302 302 314 327 312 314 346 213 189 194 198 196 194
173 182 178 175 174 175 177 176 175 179 198 226 256 280 295 302 307 302 301 305 301 296 297 301 298 291 287 289 291 289 290 293 288 185 283 305 310 244 194 198 203 200 200
165 168 178 187 188 186 187 187 191 203 214 235 273 290 311 315 315 311 306 307 299 295 295 297 293 292 285 280 280 282 283 291 287 241 256 276 266 238 218 203 196 202 205
142 163 190 193 204 204 200 208 214 213 241 266 285 311 320 315 309 305 302 304 315 311 302 302 302 297 288 283 276 274 279 284 280 189 265 295 303 284 252 204 199 201 200
87 202 204 218 211 221 262 252 250 256 256 274 289 299 319 323 343 353 6 326 327 344 353 3 337 10 7 342 303 294 297 300 324 50 313 305 324 319 242 197 206 195 199
191 212 198 215 210 216 236 250 266 263 248 260 305 316 350 90 53 46 49 41 31 14 33 38 32 25 20 12 11 14 10 347 353 336 294 301 323 333 221 207 211 218 214
229 234 230 197 204 196 238 194 226 249 262 270 303 298 248 173 133 91 60 49 20 55 49 35 21 24 43 31 14 15 355 341 328 304 272 281 296 296 300 258 245 253 248
177 185 205 215 210 199 221 247 221 191 294 296 218 208 253 221 266 333 58 53 56 66 41 38 42 28 50 62 35 28 11 5 334 292 285 273 280 295 282 258 249 252 275
197 164 168 173 152 102 101 90 115 133 239 231 263 268 254 276 263 265 250 258 193 194 143 140 148 113 49 42 62 29 1 353 308 301 281 288 286 283 276 257 252 237 232
159 171 157 136 131 113 85 84 68 50 357 252 347 320 315 302 297 313 303 304 292 315 339 242 190 198 169 134 25 10 338 316 315 301 283 305 294 288 286 274 269 257 243
157 180 157 143 132 122 119 107 94 47 22 25 3 346 349 315 304 333 337 344 328 340 329 308 305 331 351 349 338 338 345 315 317 317 293 296 303 305 293 283 290 285 280
151 140 175 149 136 134 134 145 112 64 54 53 57 39 35 32 29 16 7 360 343 340 344 338 334 347 358 349 320 349 314 323 330 324 320 310 289 297 305 300 313 307 310
95 165 183 154 148 134 102 76 65 63 67 54 51 44 36 37 38 39 26 358 338 348 343 348 339 317 213 317 305 314 320 314 309 298 301 306 307 273 282 294 306 7 7
170 178 171 184 150 128 83 85 90 81 74 64 63 56 47 50 47 33 359 326 330 317 303 288 292 275 296 315 298 317 323 321 309 317 293 287 296 296 268 285 331 350 350
257 197 203 164 124 86 90 93 89 85 66 58 114 68 38 25 29 354 307 317 325 309 292 280 269 269 257 263 299 333 301 289 283 292 285 286 284 273 235 79 336 336 326
234 254 239 161 78 99 79 15 47 100 280 215 222 245 348 352 2 350 342 344 337 311 281 281 273 265 278 342 13 336 310 303 301 312 297 298 304 317 76 64 55 355 339
262 144 71 104 124 121 114 195 227 182 243 276 304 281 348 2 352 354 356 334 320 311 326 314 246 311 289 317 174 118 310 318 333 299 303 335 347 356 71 25 48 22 349
218 150 153 151 140 123 148 110 251 34 6 334 315 333 345 346 339 329 307 311 307 303 298 296 271 198 275 4 302 176 311 260 325 322 316 331 338 344 4 345 27 16 14
239 171 167 173 162 211 205 223 171 196 231 242 274 296 305 308 313 315 311 309 301 294 292 276 216 231 214 241 326 117 247 226 251 312 319 335 352 10 357 348 7 20 35
218 186 160 195 227 232 223 239 200 238 249 303 285 287 300 311 306 293 285 295 291 284 280 262 291 256 235 211 199 221 237 262 266 234 284 317 341 40 7 18 353 23 52
147 172 201 208 227 247 249 240 232 247 265 267 289 289 287 279 280 282 275 266 286 293 275 274 318 281 268 243 227 212 206 201 217 252 214 252 254 334 49 51 40 13 8